This is the latest recevied weather packets stored in our database for station/object 9A7DI-13. If no packets are shown the sender has not sent any weather packets the latest 10 day(s).
| Time | Temp. | Humidity | Pressure | Rain* | Wind** | Luminosity | Snow |
|---|---|---|---|---|---|---|---|
| 1788164809 | 31.67° C | 36% | 1023 hPa | - | - | - | - |
| 1788164209 | 31.67° C | 37% | 1023.1 hPa | - | - | - | - |
| 1788163609 | 30.56° C | 38% | 1023.1 hPa | - | - | - | - |
| 1788163009 | 29.44° C | 41% | 1023.1 hPa | - | - | - | - |
| 1788162409 | 28.89° C | 41% | 1023.1 hPa | - | - | - | - |
| 1788161809 | 28.89° C | 42% | 1023.2 hPa | - | - | - | - |
| 1788161209 | 28.33° C | 42% | 1023.1 hPa | - | - | - | - |
| 1788160609 | 27.78° C | 45% | 1023 hPa | - | - | - | - |
| 1788160009 | 26.67° C | 48% | 1023.1 hPa | - | - | - | - |
| 1788159409 | 25.56° C | 50% | 1023.1 hPa | - | - | - | - |
| 1788158809 | 24.44° C | 55% | 1023.2 hPa | - | - | - | - |
| 1788158209 | 23.33° C | 59% | 1023.3 hPa | - | - | - | - |
| 1788157609 | 22.22° C | 63% | 1023.3 hPa | - | - | - | - |
| 1788157009 | 21.67° C | 64% | 1023.5 hPa | - | - | - | - |
| 1788156409 | 20.56° C | 68% | 1023.5 hPa | - | - | - | - |
| 1788155809 | 20° C | 71% | 1023.5 hPa | - | - | - | - |
| 1788155209 | 19.44° C | 76% | 1023.6 hPa | - | - | - | - |
| 1788154609 | 18.89° C | 80% | 1023.6 hPa | - | - | - | - |
| 1788154009 | 18.33° C | 83% | 1023.6 hPa | - | - | - | - |
| 1788153409 | 17.78° C | 86% | 1023.7 hPa | - | - | - | - |
| 1788152809 | 17.22° C | 87% | 1023.7 hPa | - | - | - | - |
| 1788152209 | 16.67° C | 86% | 1023.6 hPa | - | - | - | - |
| 1788151609 | 16.67° C | 86% | 1023.6 hPa | - | - | - | - |
| 1788151009 | 16.11° C | 87% | 1023.6 hPa | - | - | - | - |
| 1788150409 | 16.11° C | 87% | 1023.6 hPa | - | - | - | - |
* Rain since midnight (hover to see other rain measurements)
** Current wind speed in m/s (hover to see current wind gust speed)